Time,TemperatureF,DewpointF,PressureIn,WindDirection,WindDirectionDegrees,WindSpeedMPH,WindSpeedGustMPH,Humidity,HourlyPrecipIn,Conditions,Clouds,dailyrainin,SolarRadiationWatts/m^2,SoftwareType,DateUTC
2013-03-08 00:02:00,29.0,27.0,-100.00,NNW,331,11.0,25.0,93,0.00,,,0.01,0.000000,,2013-03-08 05:02:00,
2013-03-08 00:10:00,29.0,28.0,-100.00,NNW,331,9.0,19.0,95,0.00,,,0.01,0.000000,,2013-03-08 05:10:00,
2013-03-08 00:33:00,29.0,28.0,-100.00,NNW,331,9.0,19.0,95,0.00,,,0.01,0.000000,,2013-03-08 05:33:00,
2013-03-08 00:42:00,29.0,28.0,-100.00,NNW,331,9.0,19.0,95,0.00,,,0.01,0.000000,,2013-03-08 05:42:00,
2013-03-08 00:52:00,29.0,28.0,-100.00,NNW,331,9.0,19.0,95,0.00,,,0.01,0.000000,,2013-03-08 05:52:00,
2013-03-08 01:02:00,29.0,28.0,-100.00,NNW,331,9.0,19.0,95,0.00,,,0.01,0.000000,,2013-03-08 06:02:00,
2013-03-08 01:10:00,28.0,27.0,-100.00,NW,325,11.0,21.0,95,0.00,,,0.01,0.000000,,2013-03-08 06:10:00,
2013-03-08 01:32:00,28.0,27.0,-100.00,NW,325,11.0,21.0,95,0.00,,,0.01,0.000000,,2013-03-08 06:32:00,
2013-03-08 01:42:00,28.0,27.0,-100.00,NW,325,11.0,21.0,95,0.00,,,0.01,0.000000,,2013-03-08 06:42:00,
2013-03-08 01:52:00,28.0,27.0,-100.00,NW,325,11.0,21.0,95,0.00,,,0.01,0.000000,,2013-03-08 06:52:00,
2013-03-08 02:01:00,28.0,27.0,-100.00,NW,325,11.0,21.0,95,0.00,,,0.01,0.000000,,2013-03-08 07:01:00,
2013-03-08 02:10:00,28.0,27.0,-100.00,NNW,327,9.0,19.0,94,0.00,,,0.01,0.000000,,2013-03-08 07:10:00,
2013-03-08 02:32:00,28.0,27.0,-100.00,NNW,327,9.0,19.0,94,0.00,,,0.01,0.000000,,2013-03-08 07:32:00,
2013-03-08 02:42:00,28.0,27.0,-100.00,NNW,327,9.0,19.0,94,0.00,,,0.01,0.000000,,2013-03-08 07:42:00,
2013-03-08 02:52:00,28.0,27.0,-100.00,NNW,327,9.0,19.0,94,0.00,,,0.01,0.000000,,2013-03-08 07:52:00,
2013-03-08 03:01:00,28.0,27.0,-100.00,NNW,327,9.0,19.0,94,0.00,,,0.01,0.000000,,2013-03-08 08:01:00,
2013-03-08 03:10:00,27.0,26.0,-100.00,NW,322,10.0,22.0,95,0.00,,,0.00,0.000000,,2013-03-08 08:10:00,
2013-03-08 03:32:00,27.0,26.0,-100.00,NW,322,10.0,22.0,95,0.00,,,0.00,0.000000,,2013-03-08 08:32:00,
2013-03-08 03:42:00,27.0,26.0,-100.00,NW,322,10.0,22.0,95,0.00,,,0.00,0.000000,,2013-03-08 08:42:00,
2013-03-08 03:52:00,27.0,26.0,-100.00,NW,322,10.0,22.0,95,0.00,,,0.00,0.000000,,2013-03-08 08:52:00,
2013-03-08 04:03:00,27.0,26.0,-100.00,NW,322,10.0,22.0,95,0.00,,,0.00,0.000000,,2013-03-08 09:03:00,
2013-03-08 04:10:00,27.0,26.0,-100.00,NNW,327,10.0,18.0,95,0.00,,,0.00,0.000000,,2013-03-08 09:10:00,
2013-03-08 04:32:00,27.0,26.0,-100.00,NNW,327,10.0,18.0,95,0.00,,,0.00,0.000000,,2013-03-08 09:32:00,
2013-03-08 04:42:00,27.0,26.0,-100.00,NNW,327,10.0,18.0,95,0.00,,,0.00,0.000000,,2013-03-08 09:42:00,
2013-03-08 04:52:00,27.0,26.0,-100.00,NNW,327,10.0,18.0,95,0.00,,,0.00,0.000000,,2013-03-08 09:52:00,
2013-03-08 05:01:00,27.0,26.0,-100.00,NNW,327,10.0,18.0,95,0.00,,,0.00,0.000000,,2013-03-08 10:01:00,
2013-03-08 05:10:00,27.0,26.0,-100.00,NNW,327,12.0,22.0,95,0.00,,,0.00,0.000000,,2013-03-08 10:10:00,
2013-03-08 05:32:00,27.0,26.0,-100.00,NNW,327,12.0,22.0,95,0.00,,,0.00,0.000000,,2013-03-08 10:32:00,
2013-03-08 05:42:00,27.0,26.0,-100.00,NNW,327,12.0,22.0,95,0.00,,,0.00,0.000000,,2013-03-08 10:42:00,
2013-03-08 05:52:00,27.0,26.0,-100.00,NNW,327,12.0,22.0,95,0.00,,,0.00,0.000000,,2013-03-08 10:52:00,
2013-03-08 06:01:00,27.0,26.0,-100.00,NNW,327,12.0,22.0,95,0.00,,,0.00,0.000000,,2013-03-08 11:01:00,
2013-03-08 06:10:00,26.0,25.0,-100.00,NNW,333,13.0,26.0,94,0.00,,,0.00,0.000000,,2013-03-08 11:10:00,
2013-03-08 06:32:00,26.0,25.0,-100.00,NNW,333,13.0,26.0,94,0.00,,,0.00,0.000000,,2013-03-08 11:32:00,
2013-03-08 06:42:00,26.0,25.0,-100.00,NNW,333,13.0,26.0,94,0.00,,,0.00,0.000000,,2013-03-08 11:42:00,
2013-03-08 06:52:00,26.0,25.0,-100.00,NNW,333,13.0,26.0,94,0.00,,,0.00,0.000000,,2013-03-08 11:52:00,
2013-03-08 07:02:00,26.0,25.0,-100.00,NNW,333,13.0,26.0,94,0.00,,,0.00,0.000000,,2013-03-08 12:02:00,
2013-03-08 07:10:00,26.0,25.0,-100.00,NNW,330,11.0,19.0,94,0.00,,,0.00,8.000000,,2013-03-08 12:10:00,
2013-03-08 07:32:00,26.0,25.0,-100.00,NNW,330,11.0,19.0,94,0.00,,,0.00,8.000000,,2013-03-08 12:32:00,
2013-03-08 07:43:00,26.0,25.0,-100.00,NNW,330,11.0,19.0,94,0.00,,,0.00,8.000000,,2013-03-08 12:43:00,
2013-03-08 07:53:00,26.0,25.0,-100.00,NNW,330,11.0,19.0,94,0.00,,,0.00,8.000000,,2013-03-08 12:53:00,
2013-03-08 08:02:00,26.0,25.0,-100.00,NNW,330,11.0,19.0,94,0.00,,,0.00,8.000000,,2013-03-08 13:02:00,
2013-03-08 08:10:00,27.0,26.0,-100.00,NNW,327,13.0,21.0,94,0.00,,,-99.99,41.000000,,2013-03-08 13:10:00,
2013-03-08 08:42:00,27.0,26.0,-100.00,NNW,327,13.0,21.0,94,0.00,,,-99.99,41.000000,,2013-03-08 13:42:00,
2013-03-08 08:52:00,27.0,26.0,-100.00,NNW,327,13.0,21.0,94,0.00,,,-99.99,41.000000,,2013-03-08 13:52:00,
2013-03-08 09:03:00,27.0,26.0,-100.00,NNW,327,13.0,21.0,94,0.00,,,-99.99,41.000000,,2013-03-08 14:03:00,
2013-03-08 09:10:00,27.0,25.0,-100.00,NW,326,12.0,22.0,93,0.00,,,0.00,91.000000,,2013-03-08 14:10:00,
2013-03-08 09:33:00,27.0,25.0,-100.00,NW,326,12.0,22.0,93,0.00,,,0.00,91.000000,,2013-03-08 14:33:00,
2013-03-08 09:42:00,27.0,25.0,-100.00,NW,326,12.0,22.0,93,0.00,,,0.00,91.000000,,2013-03-08 14:42:00,
2013-03-08 09:53:00,27.0,25.0,-100.00,NW,326,12.0,22.0,93,0.00,,,0.00,91.000000,,2013-03-08 14:53:00,
2013-03-08 10:03:00,27.0,25.0,-100.00,NW,326,12.0,22.0,93,0.00,,,0.00,91.000000,,2013-03-08 15:03:00,
2013-03-08 10:10:00,28.0,26.0,-100.00,NNW,330,12.0,25.0,93,0.00,,,0.00,159.000000,,2013-03-08 15:10:00,
2013-03-08 10:32:00,28.0,26.0,-100.00,NNW,330,12.0,25.0,93,0.00,,,0.00,159.000000,,2013-03-08 15:32:00,
2013-03-08 10:43:00,28.0,26.0,-100.00,NNW,330,12.0,25.0,93,0.00,,,0.00,159.000000,,2013-03-08 15:43:00,
2013-03-08 10:53:00,28.0,26.0,-100.00,NNW,330,12.0,25.0,93,0.00,,,0.00,159.000000,,2013-03-08 15:53:00,
2013-03-08 11:02:00,28.0,26.0,-100.00,NNW,330,12.0,25.0,93,0.00,,,0.00,159.000000,,2013-03-08 16:02:00,
2013-03-08 11:10:00,29.0,27.0,-100.00,NNW,330,13.0,24.0,93,0.00,,,0.00,195.000000,,2013-03-08 16:10:00,
2013-03-08 11:32:00,29.0,27.0,-100.00,NNW,330,13.0,24.0,93,0.00,,,0.00,195.000000,,2013-03-08 16:32:00,
2013-03-08 11:42:00,29.0,27.0,-100.00,NNW,330,13.0,24.0,93,0.00,,,0.00,195.000000,,2013-03-08 16:42:00,
2013-03-08 11:52:00,29.0,27.0,-100.00,NNW,330,13.0,24.0,93,0.00,,,0.00,195.000000,,2013-03-08 16:52:00,
2013-03-08 12:03:00,29.0,27.0,-100.00,NNW,330,13.0,24.0,93,0.00,,,0.00,195.000000,,2013-03-08 17:03:00,
2013-03-08 12:10:00,30.0,28.0,-100.00,NNW,329,14.0,24.0,92,0.00,,,0.00,256.000000,,2013-03-08 17:10:00,
2013-03-08 12:32:00,30.0,28.0,-100.00,NNW,329,14.0,24.0,92,0.00,,,0.00,256.000000,,2013-03-08 17:32:00,
2013-03-08 12:42:00,30.0,28.0,-100.00,NNW,329,14.0,24.0,92,0.00,,,0.00,256.000000,,2013-03-08 17:42:00,
2013-03-08 12:52:00,30.0,28.0,-100.00,NNW,329,14.0,24.0,92,0.00,,,0.00,256.000000,,2013-03-08 17:52:00,
2013-03-08 13:02:00,30.0,28.0,-100.00,NNW,329,14.0,24.0,92,0.00,,,0.00,256.000000,,2013-03-08 18:02:00,
2013-03-08 13:10:00,32.0,30.0,-100.00,NNW,327,13.0,25.0,92,0.04,,,0.04,283.000000,,2013-03-08 18:10:00,
2013-03-08 13:32:00,32.0,30.0,-100.00,NNW,327,13.0,25.0,92,0.04,,,0.04,283.000000,,2013-03-08 18:32:00,
2013-03-08 13:42:00,32.0,30.0,-100.00,NNW,327,13.0,25.0,92,0.04,,,0.04,283.000000,,2013-03-08 18:42:00,
2013-03-08 13:52:00,32.0,30.0,-100.00,NNW,327,13.0,25.0,92,0.04,,,0.04,283.000000,,2013-03-08 18:52:00,
2013-03-08 14:01:00,32.0,30.0,-100.00,NNW,327,13.0,25.0,92,0.04,,,0.04,283.000000,,2013-03-08 19:01:00,
2013-03-08 14:10:00,35.0,32.0,-100.00,NNW,332,11.0,25.0,87,0.02,,,0.06,349.000000,,2013-03-08 19:10:00,
2013-03-08 14:42:00,35.0,32.0,-100.00,NNW,332,11.0,25.0,87,0.02,,,0.06,349.000000,,2013-03-08 19:42:00,
2013-03-08 14:52:00,35.0,32.0,-100.00,NNW,332,11.0,25.0,87,0.02,,,0.06,349.000000,,2013-03-08 19:52:00,
2013-03-08 15:01:00,35.0,32.0,-100.00,NNW,332,11.0,25.0,87,0.02,,,0.06,349.000000,,2013-03-08 20:01:00,
2013-03-08 15:10:00,38.0,30.0,-100.00,NNW,337,14.0,26.0,74,0.00,,,0.06,395.000000,,2013-03-08 20:10:00,
2013-03-08 15:32:00,38.0,30.0,-100.00,NNW,337,14.0,26.0,74,0.00,,,0.06,395.000000,,2013-03-08 20:32:00,
2013-03-08 15:42:00,38.0,30.0,-100.00,NNW,337,14.0,26.0,74,0.00,,,0.06,395.000000,,2013-03-08 20:42:00,
2013-03-08 15:53:00,38.0,30.0,-100.00,NNW,337,14.0,26.0,74,0.00,,,0.06,395.000000,,2013-03-08 20:53:00,
2013-03-08 16:02:00,38.0,30.0,-100.00,NNW,337,14.0,26.0,74,0.00,,,0.06,395.000000,,2013-03-08 21:02:00,
2013-03-08 16:10:00,40.0,28.0,-100.00,NNW,348,13.0,26.0,62,0.00,,,0.06,313.000000,,2013-03-08 21:10:00,
2013-03-08 16:33:00,40.0,28.0,-100.00,NNW,348,13.0,26.0,62,0.00,,,0.06,313.000000,,2013-03-08 21:33:00,
2013-03-08 16:42:00,40.0,28.0,-100.00,NNW,348,13.0,26.0,62,0.00,,,0.06,313.000000,,2013-03-08 21:42:00,
2013-03-08 16:52:00,40.0,28.0,-100.00,NNW,348,13.0,26.0,62,0.00,,,0.06,313.000000,,2013-03-08 21:52:00,
2013-03-08 17:02:00,40.0,28.0,-100.00,NNW,348,13.0,26.0,62,0.00,,,0.06,313.000000,,2013-03-08 22:02:00,
2013-03-08 17:10:00,39.0,27.0,-100.00,NNW,336,13.0,25.0,63,0.01,,,0.07,234.000000,,2013-03-08 22:10:00,
2013-03-08 17:42:00,39.0,27.0,-100.00,NNW,336,13.0,25.0,63,0.01,,,0.07,234.000000,,2013-03-08 22:42:00,
2013-03-08 17:53:00,39.0,27.0,-100.00,NNW,336,13.0,25.0,63,0.01,,,0.07,234.000000,,2013-03-08 22:53:00,
2013-03-08 18:02:00,39.0,27.0,-100.00,NNW,336,13.0,25.0,63,0.01,,,0.07,234.000000,,2013-03-08 23:02:00,
2013-03-08 18:10:00,38.0,26.0,-100.00,NW,323,9.0,24.0,62,0.00,,,0.07,26.000000,,2013-03-08 23:10:00,
2013-03-08 18:32:00,38.0,26.0,-100.00,NW,323,9.0,24.0,62,0.00,,,0.07,26.000000,,2013-03-08 23:32:00,
2013-03-08 18:42:00,38.0,26.0,-100.00,NW,323,9.0,24.0,62,0.00,,,0.07,26.000000,,2013-03-08 23:42:00,
2013-03-08 18:53:00,38.0,26.0,-100.00,NW,323,9.0,24.0,62,0.00,,,0.07,26.000000,,2013-03-08 23:53:00,
2013-03-08 19:02:00,38.0,26.0,-100.00,NW,323,9.0,24.0,62,0.00,,,0.07,26.000000,,2013-03-09 00:02:00,
2013-03-08 19:10:00,37.0,25.0,-100.00,NNW,330,14.0,24.0,61,0.00,,,0.07,0.000000,,2013-03-09 00:10:00,
2013-03-08 19:42:00,37.0,25.0,-100.00,NNW,330,14.0,24.0,61,0.00,,,0.07,0.000000,,2013-03-09 00:42:00,
2013-03-08 19:52:00,37.0,25.0,-100.00,NNW,330,14.0,24.0,61,0.00,,,0.07,0.000000,,2013-03-09 00:52:00,
2013-03-08 20:02:00,37.0,25.0,-100.00,NNW,330,14.0,24.0,61,0.00,,,0.07,0.000000,,2013-03-09 01:02:00,
2013-03-08 22:10:00,34.0,22.0,-100.00,NNW,331,11.0,21.0,61,-99.99,,,0.07,0.000000,,2013-03-09 03:10:00,
2013-03-08 22:32:00,34.0,22.0,-100.00,NNW,331,11.0,21.0,61,-99.99,,,0.07,0.000000,,2013-03-09 03:32:00,
2013-03-08 22:42:00,34.0,22.0,-100.00,NNW,331,11.0,21.0,61,-99.99,,,0.07,0.000000,,2013-03-09 03:42:00,
2013-03-08 22:52:00,34.0,22.0,-100.00,NNW,331,11.0,21.0,61,-99.99,,,0.07,0.000000,,2013-03-09 03:52:00,
2013-03-08 23:01:00,34.0,22.0,-100.00,NNW,331,11.0,21.0,61,-99.99,,,0.07,0.000000,,2013-03-09 04:01:00,
2013-03-08 23:10:00,33.0,22.0,-100.00,NNW,333,10.0,19.0,63,0.00,,,0.07,0.000000,,2013-03-09 04:10:00,
2013-03-08 23:32:00,33.0,22.0,-100.00,NNW,333,10.0,19.0,63,0.00,,,0.07,0.000000,,2013-03-09 04:32:00,
2013-03-08 23:42:00,33.0,22.0,-100.00,NNW,333,10.0,19.0,63,0.00,,,0.07,0.000000,,2013-03-09 04:42:00,
2013-03-08 23:52:00,33.0,22.0,-100.00,NNW,333,10.0,19.0,63,0.00,,,0.07,0.000000,,2013-03-09 04:52:00,